EZY122 GMMN-LPFR

Flight info

Callsign EZY122
Flight time 0h 34m
Altitude 32000
Route LAKAM UR722 AMSEL DCT GIMAL
Aircraft A21N/M-SDE2E3FGHIRWXY/LB1

Departure

Time 2026-05-05 18:45
Airport Mohammed V International Airport (GMMN)

Arrival

Time 2026-05-05 19:19
Airport Faro - Gago Coutinho International Airport (LPFR)
Time Latitude Longitude Altitude Speed Heading
2026-05-05 18:17 33.37421 -7.58282 654 ft 0 kts 73°
2026-05-05 18:36 33.37417 -7.58295 654 ft 3 kts 73°
2026-05-05 18:37 33.37412 -7.58316 653 ft 3 kts 73°
2026-05-05 18:37 33.37407 -7.58338 652 ft 3 kts 100°
2026-05-05 18:37 33.37417 -7.58356 654 ft 3 kts 163°
2026-05-05 18:37 33.37421 -7.58358 653 ft 0 kts 179°
2026-05-05 18:38 33.37419 -7.58358 652 ft 0 kts 179°
2026-05-05 18:39 33.37405 -7.58357 653 ft 9 kts 179°
2026-05-05 18:39 33.37338 -7.58352 652 ft 10 kts 173°
2026-05-05 18:40 33.37275 -7.58334 653 ft 9 kts 159°
2026-05-05 18:40 33.37189 -7.58299 654 ft 25 kts 162°
2026-05-05 18:40 33.37004 -7.58237 657 ft 13 kts 170°
2026-05-05 18:40 33.36919 -7.58306 655 ft 17 kts 263°
2026-05-05 18:41 33.36886 -7.58442 657 ft 21 kts 221°
2026-05-05 18:41 33.36771 -7.58435 654 ft 22 kts 163°
2026-05-05 18:41 33.36590 -7.58352 657 ft 33 kts 167°
2026-05-05 18:41 33.36337 -7.58281 656 ft 38 kts 166°
2026-05-05 18:42 33.36139 -7.58220 657 ft 29 kts 163°
2026-05-05 18:42 33.35949 -7.58152 657 ft 28 kts 163°
2026-05-05 18:42 33.35763 -7.58087 658 ft 21 kts 166°
2026-05-05 18:42 33.35654 -7.58051 659 ft 16 kts 163°
2026-05-05 18:43 33.35547 -7.58013 659 ft 16 kts 165°
2026-05-05 18:43 33.35440 -7.57978 659 ft 16 kts 164°
2026-05-05 18:43 33.35333 -7.57948 660 ft 15 kts 178°
2026-05-05 18:43 33.35253 -7.58012 660 ft 14 kts 244°
2026-05-05 18:44 33.35222 -7.58125 660 ft 14 kts 253°
2026-05-05 18:44 33.35214 -7.58236 661 ft 13 kts 301°
2026-05-05 18:44 33.35412 -7.58328 660 ft 60 kts 345°
2026-05-05 18:44 33.36024 -7.58532 657 ft 124 kts 345°
2026-05-05 18:45 33.37010 -7.58873 779 ft 160 kts 346°
2026-05-05 18:45 33.38119 -7.59203 1219 ft 171 kts 346°
2026-05-05 18:45 33.39312 -7.59570 1672 ft 182 kts 346°
2026-05-05 18:45 33.40558 -7.60010 2104 ft 192 kts 345°
2026-05-05 18:46 33.41752 -7.60780 2666 ft 207 kts 315°
2026-05-05 18:46 33.42594 -7.62234 3446 ft 217 kts 303°
2026-05-05 18:46 33.43394 -7.63801 4242 ft 226 kts 302°
2026-05-05 18:46 33.44267 -7.65453 4925 ft 238 kts 302°
2026-05-05 18:47 33.45184 -7.67104 5866 ft 239 kts 302°
2026-05-05 18:47 33.46125 -7.68752 6739 ft 241 kts 302°
2026-05-05 18:47 33.47089 -7.70410 7579 ft 244 kts 302°
2026-05-05 18:47 33.48068 -7.72081 8450 ft 246 kts 302°
2026-05-05 18:48 33.49121 -7.73743 9183 ft 258 kts 309°
2026-05-05 18:48 33.50584 -7.75117 9775 ft 279 kts 330°
2026-05-05 18:48 33.52512 -7.75712 10391 ft 299 kts 350°
2026-05-05 18:48 33.54673 -7.75790 10748 ft 323 kts 356°
2026-05-05 18:49 33.56995 -7.75728 11092 ft 344 kts 358°
2026-05-05 18:49 33.59444 -7.75637 11641 ft 357 kts 358°
2026-05-05 18:49 33.61945 -7.75546 12399 ft 363 kts 357°
2026-05-05 18:49 33.64485 -7.75456 13159 ft 368 kts 357°
2026-05-05 18:50 33.67057 -7.75370 13934 ft 372 kts 357°
2026-05-05 18:50 33.69657 -7.75288 14618 ft 376 kts 356°
2026-05-05 18:50 33.72286 -7.75207 15305 ft 380 kts 357°
2026-05-05 18:50 33.74956 -7.75127 15952 ft 386 kts 357°
2026-05-05 18:51 33.77649 -7.75047 16640 ft 389 kts 357°
2026-05-05 18:51 33.80368 -7.74966 17316 ft 393 kts 357°
2026-05-05 18:51 33.83120 -7.74885 17978 ft 397 kts 356°
2026-05-05 18:51 33.85895 -7.74804 18578 ft 401 kts 356°
2026-05-05 18:52 33.88696 -7.74721 19154 ft 404 kts 356°
2026-05-05 18:52 33.91518 -7.74638 19716 ft 407 kts 356°
2026-05-05 18:52 33.94331 -7.74556 20261 ft 411 kts 356°
2026-05-05 18:52 33.97197 -7.74471 20812 ft 414 kts 356°
2026-05-05 18:53 34.00076 -7.74385 21436 ft 414 kts 357°
2026-05-05 18:53 34.02959 -7.74299 22023 ft 416 kts 357°
2026-05-05 18:53 34.05859 -7.74214 22549 ft 418 kts 358°
2026-05-05 18:53 34.08785 -7.74128 23075 ft 421 kts 358°
2026-05-05 18:54 34.11722 -7.74042 23620 ft 424 kts 358°
2026-05-05 18:54 34.14676 -7.73955 24068 ft 426 kts 358°
2026-05-05 18:54 34.24163 -7.73814 25457 ft 429 kts 355°
2026-05-05 18:54 34.60434 -7.76938 30774 ft 427 kts 355°
2026-05-05 18:55 34.80782 -7.77773 32289 ft 437 kts 352°
2026-05-05 18:55 34.83834 -7.78126 32285 ft 444 kts 351°
2026-05-05 18:55 34.90906 -7.78998 32042 ft 452 kts 352°
2026-05-05 18:55 35.03441 -7.80139 32052 ft 452 kts 352°
2026-05-05 18:56 35.28575 -7.82245 32046 ft 453 kts 352°
2026-05-05 18:56 35.43735 -7.83533 32053 ft 455 kts 352°
2026-05-05 18:57 35.50027 -7.84096 31773 ft 452 kts 352°
2026-05-05 18:57 35.53162 -7.84381 31533 ft 452 kts 351°
2026-05-05 18:57 35.56275 -7.84662 31200 ft 444 kts 351°
2026-05-05 18:58 35.59299 -7.84933 30692 ft 440 kts 351°
2026-05-05 18:58 35.62378 -7.85211 30168 ft 436 kts 351°
2026-05-05 18:58 35.65359 -7.85481 29576 ft 432 kts 351°
2026-05-05 18:58 35.68341 -7.85750 29054 ft 427 kts 351°
2026-05-05 18:59 35.71285 -7.86016 28539 ft 422 kts 351°
2026-05-05 18:59 35.74193 -7.86279 28029 ft 417 kts 351°
2026-05-05 18:59 35.77069 -7.86540 27515 ft 412 kts 351°
2026-05-05 18:59 35.79921 -7.86799 27003 ft 408 kts 351°
2026-05-05 19:00 35.82738 -7.87055 26495 ft 404 kts 351°
2026-05-05 19:00 35.85529 -7.87308 25999 ft 400 kts 351°
2026-05-05 19:00 35.88295 -7.87560 25505 ft 397 kts 351°
2026-05-05 19:00 35.91038 -7.87810 25005 ft 394 kts 351°
2026-05-05 19:01 35.93760 -7.88059 24509 ft 391 kts 351°
2026-05-05 19:01 35.95553 -7.88223 24177 ft 389 kts 351°
2026-05-05 19:01 35.98240 -7.88557 23658 ft 386 kts 349°
2026-05-05 19:01 36.00898 -7.88955 23085 ft 383 kts 348°
2026-05-05 19:02 36.03529 -7.89360 22568 ft 379 kts 348°
2026-05-05 19:02 36.06132 -7.89761 22087 ft 374 kts 348°
2026-05-05 19:02 36.08699 -7.90155 21612 ft 370 kts 348°
2026-05-05 19:02 36.11238 -7.90544 21117 ft 366 kts 349°
2026-05-05 19:03 36.13750 -7.90929 20642 ft 362 kts 349°
2026-05-05 19:03 36.16239 -7.91310 20167 ft 359 kts 349°
2026-05-05 19:03 36.18706 -7.91687 19698 ft 356 kts 349°
2026-05-05 19:03 36.21162 -7.92063 19225 ft 354 kts 349°
2026-05-05 19:04 36.23595 -7.92436 18758 ft 351 kts 350°
2026-05-05 19:04 36.26020 -7.92808 18296 ft 350 kts 349°
2026-05-05 19:04 36.28427 -7.93176 17781 ft 347 kts 350°
2026-05-05 19:04 36.30812 -7.93540 17319 ft 344 kts 348°
2026-05-05 19:05 36.33172 -7.93903 16866 ft 340 kts 348°
2026-05-05 19:05 36.35508 -7.94263 16425 ft 337 kts 348°
2026-05-05 19:05 36.37824 -7.94618 15980 ft 334 kts 348°
2026-05-05 19:05 36.40121 -7.94971 15527 ft 332 kts 349°
2026-05-05 19:06 36.42407 -7.95323 15088 ft 329 kts 350°
2026-05-05 19:06 36.44673 -7.95671 14657 ft 327 kts 349°
2026-05-05 19:06 36.46925 -7.96018 14221 ft 325 kts 348°
2026-05-05 19:06 36.49163 -7.96364 13783 ft 324 kts 350°
2026-05-05 19:07 36.51389 -7.96706 13313 ft 321 kts 351°
2026-05-05 19:07 36.53601 -7.97046 12880 ft 318 kts 349°
2026-05-05 19:07 36.55781 -7.97384 12448 ft 313 kts 351°
2026-05-05 19:07 36.57906 -7.97710 12031 ft 304 kts 349°
2026-05-05 19:08 36.60015 -7.98037 11646 ft 306 kts 349°
2026-05-05 19:08 36.62122 -7.98364 11234 ft 304 kts 349°
2026-05-05 19:08 36.64220 -7.98690 10829 ft 302 kts 351°
2026-05-05 19:08 36.66301 -7.99013 10429 ft 300 kts 349°
2026-05-05 19:09 36.68353 -7.99331 10171 ft 291 kts 350°
2026-05-05 19:09 36.70293 -7.99627 9925 ft 275 kts 351°
2026-05-05 19:09 36.72190 -7.99919 9508 ft 278 kts 350°
2026-05-05 19:09 36.74142 -7.99962 9262 ft 284 kts
2026-05-05 19:10 36.75995 -7.99131 9053 ft 284 kts 31°
2026-05-05 19:10 36.77366 -7.97450 8817 ft 280 kts 55°
2026-05-05 19:10 36.78240 -7.95297 8482 ft 278 kts 65°
2026-05-05 19:10 36.78948 -7.93092 8269 ft 268 kts 67°
2026-05-05 19:11 36.79613 -7.90954 7995 ft 262 kts 65°
2026-05-05 19:11 36.80271 -7.88848 7561 ft 262 kts 65°
2026-05-05 19:11 36.80959 -7.86683 6981 ft 267 kts 66°
2026-05-05 19:11 36.81646 -7.84540 6411 ft 272 kts 66°
2026-05-05 19:12 36.82350 -7.82344 5901 ft 273 kts 66°
2026-05-05 19:12 36.83053 -7.80153 5413 ft 271 kts 66°
2026-05-05 19:12 36.83760 -7.78006 5104 ft 263 kts 62°
2026-05-05 19:12 36.84814 -7.76190 4858 ft 250 kts 44°
2026-05-05 19:13 36.86045 -7.74746 4604 ft 241 kts 41°
2026-05-05 19:13 36.87271 -7.73392 4423 ft 230 kts 40°
2026-05-05 19:13 36.88598 -7.72389 4268 ft 221 kts 14°
2026-05-05 19:13 36.90112 -7.72148 4132 ft 221 kts
2026-05-05 19:14 36.91616 -7.72136 4043 ft 210 kts 358°
2026-05-05 19:14 36.92997 -7.72599 3909 ft 206 kts 335°
2026-05-05 19:14 36.94249 -7.73485 3799 ft 206 kts 330°
2026-05-05 19:14 36.95459 -7.74432 3662 ft 205 kts 330°
2026-05-05 19:15 36.96660 -7.75383 3500 ft 205 kts 329°
2026-05-05 19:15 36.97852 -7.76352 3209 ft 204 kts 320°
2026-05-05 19:15 36.98669 -7.77805 2898 ft 204 kts 298°
2026-05-05 19:15 36.99064 -7.79506 2628 ft 204 kts 284°
2026-05-05 19:16 36.99261 -7.81247 2356 ft 200 kts 284°
2026-05-05 19:16 36.99497 -7.82921 2101 ft 187 kts 285°
2026-05-05 19:16 36.99717 -7.84439 1849 ft 168 kts 285°
2026-05-05 19:16 36.99909 -7.85807 1636 ft 151 kts 285°
2026-05-05 19:17 37.00088 -7.87062 1442 ft 143 kts 284°
2026-05-05 19:17 37.00251 -7.88221 1259 ft 128 kts 287°
2026-05-05 19:17 37.00403 -7.89283 1095 ft 123 kts 286°
2026-05-05 19:17 37.00557 -7.90353 932 ft 127 kts 284°
2026-05-05 19:18 37.00712 -7.91443 767 ft 127 kts 282°
2026-05-05 19:18 37.00862 -7.92504 594 ft 121 kts 283°
2026-05-05 19:18 37.01007 -7.93529 438 ft 117 kts 283°
2026-05-05 19:18 37.01146 -7.94509 284 ft 113 kts 282°
2026-05-05 19:19 37.01288 -7.95509 138 ft 120 kts 282°
2026-05-05 19:19 37.01436 -7.96532 28 ft 114 kts 282°
2026-05-05 19:19 37.01535 -7.97262 23 ft 76 kts 281°
2026-05-05 19:19 37.01617 -7.97800 23 ft 29 kts 288°
2026-05-05 19:20 37.01667 -7.97854 23 ft 5 kts
2026-05-05 19:20 37.01701 -7.97836 25 ft 6 kts 33°
2026-05-05 19:20 37.01730 -7.97795 23 ft 6 kts 57°
2026-05-05 19:20 37.01753 -7.97735 27 ft 11 kts 67°
2026-05-05 19:21 37.01774 -7.97645 27 ft 10 kts 88°
2026-05-05 19:21 37.01765 -7.97555 23 ft 11 kts 100°
2026-05-05 19:21 37.01751 -7.97460 25 ft 11 kts 100°
2026-05-05 19:21 37.01738 -7.97360 25 ft 12 kts 99°
2026-05-05 19:22 37.01724 -7.97255 25 ft 12 kts 99°
2026-05-05 19:22 37.01710 -7.97146 25 ft 13 kts 99°
2026-05-05 19:22 37.01691 -7.97035 25 ft 13 kts 102°
2026-05-05 19:22 37.01693 -7.96929 25 ft 12 kts 56°
2026-05-05 19:23 37.01764 -7.96889 23 ft 11 kts 11°
2026-05-05 19:23 37.01829 -7.96859 26 ft 8 kts 17°
2026-05-05 19:23 37.01886 -7.96844 27 ft 8 kts 10°